Simultaneous Nadir Overpasses (SNOs) Predictions

Prediction of SNOs between GOES-15 and METOP-C Satellite Orbit:

Table of predicted SNOs for the next 14.0 days since TLE Epoch: 11/3/2024
Index Date Time (GOES-15) GOES-15 Lat,Lon METOP-C Lat,Lon Distance(km) Time Diff (sec)
1 11/03/2024 17:18:52 0.26, 61.49 0.51, 62.66 133.54 80
2 11/05/2024 05:37:43 -0.25, 61.39 0.46, 58.10 375.23 80
3 11/06/2024 05:19:43 -0.25, 61.41 -0.63, 63.10 192.83 80
4 11/07/2024 17:38:42 0.24, 61.55 -0.40, 58.51 345.32 80
5 11/08/2024 17:15:21 0.24, 61.57 0.70, 63.51 221.75 80
6 11/10/2024 05:34:11 -0.23, 61.49 0.34, 58.97 288.32 80
7 11/11/2024 05:16:10 -0.24, 61.51 -0.78, 63.97 279.55 80
8 11/12/2024 17:35:09 0.23, 61.65 -0.26, 59.38 257.82 80
9 11/13/2024 17:11:47 0.23, 61.68 0.82, 64.39 308.97 80
10 11/15/2024 05:30:36 -0.23, 61.61 0.18, 59.84 202.45 80
11 11/16/2024 05:12:36 -0.23, 61.64 -0.97, 64.83 365.00 80
